User: anonymous   Login
Location: Unspecified
(0.0000°N, 0.0000°E)
Time: 18:58:50
(UTC+00:00)
Language:

CUBEBUG 1 - Orbit

View from above orbital plane
View from above orbital plane
View from above satellite
View from above satellite

Ground track
Ground track

The orbit data is extracted from the following two-line orbital elements,

1 39153U 13018D   17084.80702891 +.00000300 +00000-0 +46550-4 0  9996
2 39153 097.9847 177.5580 0016085 322.1527 037.8552 14.80123004211256
Epoch (UTC): 25 March 2017 19:22:07
Eccentricity: 0.0016085
inclination: 97.9847°
perigee height: 617 km
apogee height: 640 km
right ascension of ascending node: 177.5580°
argument of perigee: 322.1527°
revolutions per day: 14.80123004
mean anomaly at epoch: 37.8552°
orbit number at epoch: 21125

The dashed part of the orbit path shows where the satellite is in the earth's shadow,  

DLR